Regional Weather Roundup
Issued by NWS Nashville, TN

Home | Current Version | Previous Version | Text Only | Print | Product List | Glossary On
Versions: 1 2 3 4 5 6 7 8 9 10 11 12 13 14 15 16 17 18 19 20 21 22 23 24 25 26 27 28 29 30 31 32 33 34 35 36 37 38 39 40 41 42 43 44 45 46 47 48 49 50
879
ASUS44 KOHX 260910
RWROHX
MIDDLE TENNESSEE HOURLY WEATHER ROUNDUP
NATIONAL WEATHER SERVICE NASHVILLE TN
400 AM CDT THU MAY 26 2016

NOTE: "FAIR" INDICATES FEW OR NO CLOUDS BELOW 12,000 FEET WITH
NO SIGNIFICANT WEATHER AND/OR OBSTRUCTIONS TO VISIBILITY.

* THESE REPORTS ARE NOT UNDER NWS QUALITY CONTROL AND MAY NOT
  REPORT WEATHER SUCH AS PRECIPITATION AND FOG.


TNZ005>011-023>034-057-059-062>066-078-080-261000
...NORTHERN MIDDLE TENNESSEE...

CITY           SKY/WX    TMP DP  RH WIND       PRES   REMARKS
CLARKSVILLE    MOCLDY    63  61  93 S5        30.07S
CROSSVILLE     CLOUDY    65  60  84 CALM      30.19S
DICKSON        CLEAR     64  61  88 S8        30.09R
LEBANON        CLEAR     62  62 100 CALM      30.10S
NASHVILLE      CLOUDY    65  62  90 S5        30.11S
SMYRNA         MOCLDY    65  65 100 S3        30.12S
SPARTA         PTCLDY    64  64 100 SE5       30.13S
$$
TNZ056-058-060-061-075>077-079-093>097-261000
...SOUTHERN MIDDLE TENNESSEE...

CITY           SKY/WX    TMP DP  RH WIND       PRES   REMARKS
COLUMBIA       MOCLDY    70  70 100 SW5       30.09S
FAYETTEVILLE   MOCLDY    68  61  77 S6        30.13S
LEWISBURG      MOCLDY    62  59  90 CALM      30.12R
MCMINNVILLE    CLOUDY    66  66 100 E6        30.16R
SHELBYVILLE    PTCLDY    66  63  88 E5        30.14R
TULLAHOMA      PTCLDY    64  63  94 CALM      30.15S
WINCHESTER     PTCLDY    64  59  82 CALM      30.15R
$$


...KEY TO REMARKS...
VSB - VISIBILITY IN MILES
WCI - WIND CHILL INDEX
HX  - HEAT INDEX





USA.gov is the U.S. government's official web portal to all federal, state and local government web resources and services.